TimeCST,TemperatureF,Dew PointF,Humidity,Sea Level PressureIn,VisibilityMPH,Wind Direction,Wind SpeedMPH,Gust SpeedMPH,PrecipitationIn,Events,Conditions,WindDirDegrees,DateUTC
12:53 AM,50.0,34.0,54,29.99,10.0,Calm,Calm,-,N/A,,Overcast,0,2013-02-05 06:53:00
1:53 AM,51.1,35.1,54,29.98,10.0,South,4.6,-,N/A,,Overcast,190,2013-02-05 07:53:00
2:53 AM,51.1,35.1,54,29.97,10.0,South,3.5,-,N/A,,Overcast,190,2013-02-05 08:53:00
3:53 AM,52.0,37.0,57,29.98,10.0,South,3.5,-,N/A,,Overcast,190,2013-02-05 09:53:00
4:53 AM,52.0,39.0,61,29.99,10.0,Calm,Calm,-,N/A,,Overcast,0,2013-02-05 10:53:00
5:53 AM,52.0,39.9,63,30.00,10.0,SW,4.6,-,N/A,,Overcast,220,2013-02-05 11:53:00
6:53 AM,52.0,41.0,66,30.02,10.0,WSW,3.5,-,N/A,,Overcast,240,2013-02-05 12:53:00
7:06 AM,51.8,42.8,71,30.03,10.0,Calm,Calm,-,N/A,,Overcast,0,2013-02-05 13:06:00
7:53 AM,51.1,43.0,74,30.04,10.0,SW,3.5,-,0.00,Rain,Light Rain,220,2013-02-05 13:53:00
8:53 AM,52.0,43.0,71,30.06,10.0,Calm,Calm,-,0.00,,Overcast,0,2013-02-05 14:53:00
9:53 AM,53.1,43.0,69,30.08,10.0,West,5.8,-,N/A,,Overcast,270,2013-02-05 15:53:00
10:53 AM,50.0,46.9,89,30.07,4.0,WSW,3.5,-,0.02,Rain,Light Rain,240,2013-02-05 16:53:00
11:37 AM,51.8,48.2,88,30.07,8.0,Calm,Calm,-,0.00,,Overcast,0,2013-02-05 17:37:00
11:51 AM,51.8,48.2,88,30.06,8.0,Calm,Calm,-,0.00,,Overcast,0,2013-02-05 17:51:00
11:53 AM,51.1,48.0,89,30.06,8.0,Calm,Calm,-,0.00,,Overcast,0,2013-02-05 17:53:00
12:44 PM,51.8,48.2,88,30.04,6.0,Calm,Calm,-,N/A,,Overcast,0,2013-02-05 18:44:00
12:53 PM,52.0,48.9,89,30.04,6.0,Calm,Calm,-,N/A,,Overcast,0,2013-02-05 18:53:00
1:03 PM,51.8,48.2,88,30.04,8.0,Calm,Calm,-,N/A,,Overcast,0,2013-02-05 19:03:00
1:53 PM,53.1,51.1,93,30.03,3.0,SSW,3.5,-,0.03,Rain,Light Rain,200,2013-02-05 19:53:00
1:58 PM,53.6,50.0,88,30.03,2.0,SSW,3.5,-,0.00,Rain,Light Rain,200,2013-02-05 19:58:00
2:12 PM,53.6,51.8,94,30.03,1.2,South,3.5,-,0.02,Rain,Rain,180,2013-02-05 20:12:00
2:20 PM,53.6,51.8,94,30.02,1.2,SSW,3.5,-,0.03,Rain,Light Rain,210,2013-02-05 20:20:00
2:27 PM,53.6,51.8,94,30.02,1.5,SSW,4.6,-,0.03,Rain,Light Rain,210,2013-02-05 20:27:00
2:35 PM,53.6,51.8,94,30.02,3.0,SSW,3.5,-,0.04,,Overcast,200,2013-02-05 20:35:00
2:48 PM,53.6,51.8,94,30.02,3.0,Calm,Calm,-,0.04,,Overcast,0,2013-02-05 20:48:00
2:53 PM,53.1,51.1,93,30.01,3.0,Calm,Calm,-,0.04,,Mostly Cloudy,0,2013-02-05 20:53:00
3:25 PM,53.6,51.8,94,30.01,4.0,Calm,Calm,-,N/A,,Overcast,0,2013-02-05 21:25:00
3:53 PM,54.0,52.0,93,30.01,7.0,Calm,Calm,-,N/A,,Overcast,0,2013-02-05 21:53:00
4:24 PM,53.6,51.8,94,30.02,2.5,Calm,Calm,-,N/A,,Overcast,0,2013-02-05 22:24:00
4:45 PM,53.6,51.8,94,30.01,4.0,Calm,Calm,-,N/A,,Mostly Cloudy,0,2013-02-05 22:45:00
4:53 PM,54.0,52.0,93,30.00,4.0,Calm,Calm,-,N/A,,Mostly Cloudy,0,2013-02-05 22:53:00
5:53 PM,53.1,51.1,93,30.00,3.0,Calm,Calm,-,N/A,,Mostly Cloudy,0,2013-02-05 23:53:00
6:08 PM,51.8,50.0,94,30.02,3.0,North,5.8,-,N/A,,Mostly Cloudy,350,2013-02-06 00:08:00
6:11 PM,51.8,51.8,100,30.02,3.0,North,5.8,-,N/A,,Mostly Cloudy,350,2013-02-06 00:11:00
6:20 PM,51.8,51.8,100,30.03,2.5,North,5.8,-,N/A,,Mostly Cloudy,350,2013-02-06 00:20:00
6:53 PM,53.1,52.0,96,30.03,2.5,Calm,Calm,-,N/A,,Overcast,0,2013-02-06 00:53:00
7:19 PM,53.6,53.6,100,30.05,2.5,NW,4.6,-,N/A,,Overcast,310,2013-02-06 01:19:00
7:25 PM,53.6,51.8,94,30.05,3.0,NW,5.8,-,N/A,,Overcast,310,2013-02-06 01:25:00
7:53 PM,53.1,52.0,96,30.06,3.0,Calm,Calm,-,N/A,,Overcast,0,2013-02-06 01:53:00
8:53 PM,53.1,52.0,96,30.06,3.0,Calm,Calm,-,N/A,,Overcast,0,2013-02-06 02:53:00
9:37 PM,51.8,51.8,100,30.07,2.0,Calm,Calm,-,N/A,,Overcast,0,2013-02-06 03:37:00
9:38 PM,51.8,51.8,100,30.07,1.0,Calm,Calm,-,N/A,,Overcast,0,2013-02-06 03:38:00
9:53 PM,52.0,51.1,97,30.07,0.5,WNW,3.5,-,N/A,Fog,Fog,300,2013-02-06 03:53:00
10:12 PM,51.8,51.8,100,30.08,0.2,WNW,3.5,-,N/A,Fog,Fog,300,2013-02-06 04:12:00
10:24 PM,51.8,51.8,100,30.08,0.2,NNW,3.5,-,N/A,Fog,Fog,330,2013-02-06 04:24:00
10:44 PM,51.8,51.8,100,30.08,0.2,WNW,4.6,-,N/A,Fog,Fog,300,2013-02-06 04:44:00
10:53 PM,51.1,51.1,100,30.08,0.2,NNW,3.5,-,N/A,Fog,Fog,330,2013-02-06 04:53:00
11:00 PM,51.8,50.0,94,30.08,0.2,Calm,Calm,-,N/A,Fog,Fog,0,2013-02-06 05:00:00
11:22 PM,50.0,50.0,100,30.09,0.2,Calm,Calm,-,N/A,Fog,Fog,0,2013-02-06 05:22:00
11:39 PM,50.0,50.0,100,30.08,0.8,NNW,3.5,-,N/A,,Mist,330,2013-02-06 05:39:00
11:53 PM,50.0,50.0,100,30.08,0.5,Calm,Calm,-,N/A,Fog,Fog,0,2013-02-06 05:53:00